QPF
0.01 0.01 0.01 0.03 0.05 0.05 0.03 0.02 0.03 0.03 0.03 0.02 0.01 0.01 0.00 0.00 0.00 0.00 0.00 0.00 0.00 0.00 0.00 0.01 0.01 0.01 0.01 0.01 0.01 0.00 0.01 0.01 0.01 0.01 0.01 0.01 0.02 0.02 0.01 0.01 0.01 0.02 0.02
0.01 0.01 0.01 0.02 0.03 0.06 0.04 0.03 0.03 0.03 0.03 0.03 0.02 0.01 0.00 0.00 0.00 0.00 0.00 0.00 0.00 0.00 0.00 0.00 0.01 0.01 0.01 0.01 0.00 0.00 0.01 0.02 0.01 0.01 0.00 0.01 0.01 0.01 0.01 0.02 0.02 0.02 0.01
0.02 0.02 0.01 0.01 0.01 0.02 0.03 0.04 0.04 0.03 0.03 0.03 0.02 0.02 0.01 0.00 0.00 0.00 0.00 0.00 0.00 0.00 0.00 0.00 0.00 0.00 0.00 0.00 0.00 0.00 0.00 0.02 0.01 0.00 0.00 0.00 0.00 0.01 0.02 0.03 0.03 0.01 0.01
0.02 0.02 0.01 0.01 0.01 0.01 0.02 0.03 0.03 0.04 0.05 0.05 0.03 0.02 0.01 0.01 0.00 0.00 0.00 0.00 0.00 0.00 0.00 0.00 0.01 0.00 0.00 0.01 0.00 0.00 0.00 0.01 0.01 0.00 0.01 0.00 0.00 0.00 0.01 0.02 0.02 0.01 0.00
0.01 0.01 0.01 0.01 0.01 0.01 0.01 0.02 0.02 0.04 0.06 0.08 0.07 0.04 0.01 0.01 0.00 0.00 0.00 0.00 0.00 0.00 0.00 0.00 0.00 0.00 0.00 0.01 0.01 0.01 0.00 0.00 0.00 0.00 0.00 0.00 0.00 0.00 0.00 0.01 0.01 0.01 0.01
0.01 0.01 0.01 0.01 0.01 0.01 0.01 0.02 0.02 0.04 0.04 0.06 0.08 0.06 0.02 0.01 0.00 0.00 0.00 0.00 0.00 0.00 0.00 0.00 0.00 0.00 0.00 0.00 0.01 0.01 0.01 0.00 0.00 0.01 0.01 0.01 0.01 0.00 0.00 0.00 0.01 0.01 0.01
0.01 0.01 0.02 0.02 0.02 0.02 0.02 0.02 0.03 0.03 0.03 0.03 0.05 0.04 0.02 0.01 0.00 0.00 0.00 0.00 0.00 0.00 0.00 0.00 0.00 0.00 0.00 0.00 0.01 0.01 0.01 0.00 0.01 0.01 0.01 0.01 0.01 0.00 0.00 0.00 0.01 0.01 0.01
0.02 0.03 0.04 0.03 0.02 0.03 0.03 0.03 0.03 0.02 0.02 0.02 0.03 0.03 0.02 0.01 0.00 0.00 0.00 0.00 0.00 0.00 0.00 0.00 0.00 0.00 0.00 0.00 0.01 0.01 0.01 0.01 0.01 0.00 0.01 0.01 0.01 0.01 0.00 0.01 0.01 0.01 0.01
0.01 0.02 0.04 0.03 0.02 0.02 0.03 0.03 0.02 0.01 0.01 0.02 0.02 0.01 0.01 0.01 0.01 0.00 0.00 0.00 0.00 0.00 0.00 0.00 0.00 0.00 0.00 0.00 0.00 0.01 0.01 0.02 0.02 0.01 0.01 0.02 0.02 0.02 0.01 0.01 0.01 0.01 0.01
0.01 0.01 0.01 0.02 0.02 0.02 0.02 0.02 0.01 0.01 0.00 0.01 0.01 0.01 0.01 0.01 0.01 0.01 0.00 0.00 0.01 0.00 0.00 0.00 0.00 0.00 0.01 0.00 0.00 0.00 0.00 0.01 0.01 0.02 0.02 0.02 0.02 0.02 0.02 0.01 0.01 0.02 0.01
0.01 0.01 0.01 0.01 0.02 0.02 0.01 0.01 0.01 0.01 0.01 0.01 0.01 0.01 0.01 0.02 0.01 0.01 0.01 0.01 0.01 0.01 0.01 0.00 0.00 0.00 0.00 0.01 0.01 0.01 0.01 0.01 0.01 0.01 0.01 0.01 0.01 0.01 0.01 0.01 0.01 0.01 0.01
0.03 0.02 0.02 0.02 0.02 0.02 0.01 0.01 0.01 0.01 0.01 0.01 0.01 0.01 0.01 0.01 0.02 0.02 0.02 0.02 0.01 0.01 0.01 0.00 0.00 0.00 0.00 0.00 0.01 0.01 0.01 0.01 0.01 0.01 0.00 0.01 0.01 0.01 0.01 0.00 0.00 0.00 0.00
0.04 0.04 0.03 0.02 0.02 0.02 0.01 0.01 0.01 0.01 0.01 0.01 0.01 0.01 0.00 0.01 0.02 0.02 0.03 0.03 0.02 0.01 0.01 0.00 0.00 0.00 0.00 0.00 0.00 0.01 0.01 0.01 0.01 0.01 0.01 0.00 0.00 0.00 0.01 0.01 0.01 0.00 0.00
0.04 0.04 0.04 0.03 0.02 0.03 0.01 0.01 0.01 0.01 0.01 0.01 0.01 0.01 0.01 0.02 0.02 0.02 0.04 0.03 0.02 0.01 0.01 0.01 0.00 0.00 0.00 0.01 0.00 0.00 0.01 0.01 0.01 0.01 0.00 0.00 0.00 0.01 0.01 0.01 0.01 0.00 0.00
0.03 0.03 0.03 0.03 0.03 0.03 0.02 0.01 0.01 0.01 0.01 0.01 0.01 0.02 0.02 0.03 0.03 0.03 0.04 0.03 0.03 0.02 0.01 0.01 0.01 0.01 0.00 0.00 0.00 0.00 0.00 0.00 0.01 0.01 0.00 0.00 0.00 0.01 0.01 0.01 0.01 0.01 0.00
0.03 0.03 0.03 0.05 0.05 0.03 0.03 0.02 0.01 0.01 0.01 0.02 0.03 0.03 0.03 0.04 0.04 0.04 0.03 0.03 0.03 0.02 0.02 0.02 0.01 0.01 0.00 0.00 0.01 0.00 0.01 0.01 0.00 0.00 0.00 0.00 0.00 0.00 0.01 0.01 0.01 0.01 0.01
0.02 0.03 0.04 0.07 0.07 0.05 0.03 0.04 0.03 0.03 0.03 0.03 0.03 0.04 0.03 0.03 0.02 0.02 0.03 0.03 0.03 0.02 0.02 0.01 0.01 0.00 0.00 0.00 0.01 0.00 0.00 0.01 0.00 0.00 0.00 0.00 0.00 0.00 0.00 0.00 0.00 0.00 0.00
0.02 0.02 0.02 0.05 0.06 0.05 0.04 0.04 0.03 0.03 0.04 0.04 0.03 0.03 0.02 0.01 0.01 0.02 0.03 0.03 0.02 0.02 0.02 0.01 0.00 0.00 0.01 0.01 0.01 0.00 0.00 0.00 0.00 0.00 0.00 0.00 0.00 0.00 0.00 0.00 0.00 0.00 0.00
0.01 0.01 0.01 0.02 0.04 0.06 0.06 0.04 0.04 0.04 0.04 0.03 0.03 0.02 0.02 0.02 0.02 0.02 0.03 0.03 0.02 0.03 0.02 0.01 0.01 0.00 0.00 0.01 0.02 0.01 0.00 0.00 0.00 0.00 0.00 0.00 0.00 0.01 0.00 0.00 0.00 0.00 0.00
0.01 0.01 0.01 0.01 0.01 0.03 0.06 0.04 0.04 0.04 0.03 0.03 0.03 0.03 0.02 0.02 0.03 0.03 0.03 0.03 0.02 0.02 0.02 0.01 0.01 0.01 0.00 0.00 0.00 0.00 0.00 0.00 0.00 0.00 0.00 0.00 0.00 0.01 0.00 0.00 0.00 0.00 0.00
0.00 0.01 0.01 0.01 0.01 0.02 0.04 0.02 0.02 0.02 0.02 0.02 0.03 0.03 0.02 0.02 0.02 0.02 0.03 0.02 0.01 0.01 0.02 0.02 0.01 0.01 0.01 0.01 0.00 0.00 0.00 0.01 0.01 0.00 0.00 0.00 0.00 0.00 0.00 0.00 0.00 0.00 0.00
0.01 0.01 0.01 0.01 0.01 0.01 0.02 0.01 0.01 0.01 0.01 0.01 0.01 0.02 0.02 0.02 0.02 0.02 0.03 0.03 0.02 0.01 0.01 0.01 0.01 0.01 0.01 0.01 0.01 0.01 0.00 0.00 0.00 0.00 0.00 0.00 0.01 0.01 0.00 0.00 0.00 0.00 0.00
0.01 0.00 0.01 0.01 0.02 0.02 0.01 0.01 0.01 0.01 0.01 0.01 0.01 0.02 0.03 0.02 0.02 0.02 0.03 0.04 0.03 0.02 0.01 0.01 0.00 0.00 0.01 0.01 0.01 0.01 0.00 0.00 0.00 0.00 0.01 0.01 0.01 0.01 0.00 0.00 0.00 0.00 0.00
0.00 0.00 0.01 0.01 0.02 0.02 0.02 0.03 0.02 0.02 0.02 0.02 0.02 0.02 0.03 0.03 0.02 0.03 0.04 0.04 0.03 0.02 0.02 0.01 0.01 0.01 0.01 0.01 0.01 0.01 0.01 0.01 0.01 0.00 0.01 0.00 0.00 0.00 0.00 0.00 0.00 0.00 0.00
0.00 0.00 0.01 0.01 0.02 0.03 0.04 0.04 0.04 0.03 0.02 0.02 0.03 0.02 0.03 0.03 0.03 0.03 0.03 0.03 0.03 0.02 0.02 0.01 0.01 0.01 0.01 0.01 0.01 0.00 0.00 0.00 0.00 0.00 0.00 0.00 0.00 0.00 0.00 0.00 0.00 0.00 0.00
0.01 0.01 0.01 0.01 0.01 0.02 0.03 0.03 0.04 0.04 0.04 0.03 0.03 0.03 0.03 0.03 0.02 0.03 0.03 0.03 0.02 0.02 0.03 0.02 0.02 0.01 0.01 0.01 0.00 0.00 0.00 0.00 0.00 0.00 0.00 0.00 0.00 0.00 0.00 0.00 0.00 0.00 0.00
MSLP
1016.40 1016.41 1016.43 1016.47 1016.51 1016.58 1016.68 1016.83 1017.05 1017.31 1017.61 1017.91 1018.18 1018.38 1018.50 1018.51 1018.42 1018.26 1018.05 1017.83 1017.63 1017.47 1017.38 1017.35 1017.37 1017.44 1017.54 1017.66 1017.79 1017.94 1018.11 1018.29 1018.48 1018.67 1018.86 1019.01 1019.12 1019.16 1019.15 1019.07 1018.96 1018.84 1018.72
1016.63 1016.70 1016.76 1016.82 1016.87 1016.92 1016.99 1017.11 1017.30 1017.54 1017.83 1018.15 1018.44 1018.68 1018.83 1018.87 1018.81 1018.65 1018.43 1018.19 1017.97 1017.79 1017.67 1017.61 1017.61 1017.65 1017.71 1017.80 1017.90 1018.02 1018.16 1018.34 1018.54 1018.77 1019.00 1019.22 1019.40 1019.51 1019.55 1019.51 1019.42 1019.29 1019.14
1016.75 1016.89 1017.02 1017.12 1017.19 1017.24 1017.30 1017.39 1017.54 1017.76 1018.04 1018.36 1018.67 1018.94 1019.12 1019.20 1019.16 1019.02 1018.81 1018.57 1018.33 1018.14 1017.99 1017.90 1017.86 1017.85 1017.87 1017.90 1017.95 1018.03 1018.13 1018.28 1018.49 1018.74 1019.01 1019.29 1019.54 1019.73 1019.84 1019.87 1019.81 1019.70 1019.55
1016.73 1016.95 1017.16 1017.33 1017.44 1017.51 1017.56 1017.63 1017.75 1017.95 1018.21 1018.51 1018.83 1019.12 1019.33 1019.44 1019.43 1019.32 1019.14 1018.91 1018.67 1018.47 1018.30 1018.18 1018.10 1018.05 1018.02 1017.99 1017.98 1017.99 1018.05 1018.16 1018.35 1018.59 1018.89 1019.22 1019.53 1019.79 1019.98 1020.08 1020.09 1020.02 1019.90
1016.59 1016.90 1017.19 1017.44 1017.61 1017.72 1017.78 1017.84 1017.93 1018.09 1018.32 1018.61 1018.92 1019.21 1019.43 1019.57 1019.59 1019.52 1019.36 1019.16 1018.94 1018.74 1018.57 1018.43 1018.32 1018.23 1018.15 1018.07 1018.00 1017.95 1017.95 1018.02 1018.17 1018.40 1018.70 1019.04 1019.39 1019.72 1019.98 1020.15 1020.22 1020.21 1020.13
1016.35 1016.75 1017.14 1017.47 1017.72 1017.87 1017.95 1018.01 1018.08 1018.21 1018.40 1018.65 1018.93 1019.21 1019.44 1019.58 1019.63 1019.59 1019.47 1019.30 1019.11 1018.92 1018.76 1018.62 1018.50 1018.39 1018.28 1018.16 1018.04 1017.95 1017.90 1017.91 1018.02 1018.21 1018.49 1018.82 1019.18 1019.54 1019.84 1020.07 1020.20 1020.25 1020.22
1016.06 1016.54 1017.03 1017.44 1017.76 1017.96 1018.07 1018.14 1018.19 1018.29 1018.44 1018.65 1018.89 1019.14 1019.35 1019.50 1019.56 1019.54 1019.45 1019.32 1019.16 1019.00 1018.87 1018.74 1018.63 1018.52 1018.40 1018.27 1018.13 1018.01 1017.92 1017.89 1017.94 1018.08 1018.31 1018.62 1018.96 1019.31 1019.62 1019.88 1020.07 1020.16 1020.18
1015.78 1016.33 1016.88 1017.37 1017.75 1018.00 1018.15 1018.22 1018.28 1018.35 1018.46 1018.63 1018.83 1019.04 1019.22 1019.36 1019.42 1019.41 1019.34 1019.24 1019.11 1018.99 1018.89 1018.80 1018.72 1018.63 1018.53 1018.41 1018.28 1018.15 1018.03 1017.97 1017.98 1018.07 1018.24 1018.48 1018.78 1019.09 1019.39 1019.65 1019.86 1019.99 1020.05
1015.55 1016.13 1016.73 1017.27 1017.69 1017.99 1018.17 1018.26 1018.32 1018.38 1018.47 1018.60 1018.76 1018.93 1019.08 1019.19 1019.24 1019.23 1019.18 1019.09 1019.00 1018.92 1018.85 1018.81 1018.77 1018.73 1018.67 1018.58 1018.47 1018.36 1018.25 1018.17 1018.14 1018.18 1018.29 1018.46 1018.69 1018.94 1019.20 1019.44 1019.65 1019.80 1019.89
1015.39 1015.98 1016.59 1017.14 1017.58 1017.91 1018.12 1018.24 1018.32 1018.39 1018.47 1018.59 1018.72 1018.85 1018.96 1019.04 1019.06 1019.04 1018.99 1018.92 1018.86 1018.81 1018.78 1018.78 1018.79 1018.80 1018.80 1018.77 1018.71 1018.63 1018.54 1018.46 1018.41 1018.41 1018.46 1018.57 1018.72 1018.91 1019.11 1019.31 1019.49 1019.64 1019.76
1015.35 1015.89 1016.46 1016.99 1017.42 1017.76 1017.99 1018.15 1018.26 1018.36 1018.46 1018.57 1018.69 1018.80 1018.88 1018.92 1018.92 1018.88 1018.83 1018.76 1018.71 1018.70 1018.71 1018.75 1018.82 1018.88 1018.94 1018.96 1018.95 1018.92 1018.86 1018.80 1018.75 1018.72 1018.73 1018.78 1018.87 1018.99 1019.13 1019.28 1019.43 1019.57 1019.70
1015.42 1015.88 1016.37 1016.83 1017.23 1017.55 1017.80 1017.99 1018.15 1018.29 1018.43 1018.56 1018.68 1018.77 1018.83 1018.85 1018.82 1018.77 1018.70 1018.65 1018.61 1018.62 1018.67 1018.76 1018.87 1018.98 1019.08 1019.16 1019.20 1019.21 1019.19 1019.15 1019.10 1019.07 1019.05 1019.06 1019.10 1019.16 1019.25 1019.35 1019.47 1019.59 1019.71
1015.62 1015.95 1016.32 1016.68 1017.01 1017.29 1017.55 1017.77 1017.98 1018.17 1018.36 1018.53 1018.67 1018.77 1018.82 1018.82 1018.77 1018.71 1018.64 1018.59 1018.58 1018.62 1018.70 1018.82 1018.97 1019.12 1019.26 1019.36 1019.44 1019.47 1019.48 1019.46 1019.43 1019.39 1019.37 1019.36 1019.36 1019.39 1019.43 1019.49 1019.58 1019.68 1019.79
1015.93 1016.12 1016.34 1016.57 1016.80 1017.04 1017.28 1017.52 1017.78 1018.03 1018.27 1018.49 1018.66 1018.77 1018.82 1018.82 1018.78 1018.71 1018.66 1018.63 1018.64 1018.71 1018.82 1018.98 1019.15 1019.32 1019.47 1019.59 1019.67 1019.71 1019.73 1019.71 1019.69 1019.66 1019.63 1019.61 1019.60 1019.61 1019.63 1019.66 1019.72 1019.79 1019.89
1016.36 1016.39 1016.44 1016.53 1016.65 1016.82 1017.04 1017.30 1017.59 1017.90 1018.19 1018.45 1018.66 1018.80 1018.86 1018.87 1018.83 1018.79 1018.75 1018.76 1018.81 1018.92 1019.07 1019.25 1019.44 1019.61 1019.76 1019.86 1019.92 1019.94 1019.93 1019.91 1019.87 1019.84 1019.82 1019.80 1019.79 1019.79 1019.80 1019.81 1019.85 1019.90 1019.97
1016.88 1016.75 1016.65 1016.59 1016.60 1016.70 1016.88 1017.15 1017.47 1017.82 1018.16 1018.46 1018.70 1018.87 1018.95 1018.98 1018.97 1018.95 1018.96 1019.01 1019.12 1019.27 1019.46 1019.66 1019.86 1020.02 1020.14 1020.20 1020.21 1020.18 1020.12 1020.06 1020.00 1019.96 1019.93 1019.92 1019.91 1019.92 1019.92 1019.93 1019.94 1019.97 1020.01
1017.45 1017.19 1016.96 1016.78 1016.69 1016.72 1016.87 1017.13 1017.47 1017.85 1018.23 1018.56 1018.83 1019.02 1019.13 1019.18 1019.21 1019.23 1019.29 1019.40 1019.56 1019.77 1020.00 1020.22 1020.41 1020.55 1020.62 1020.62 1020.56 1020.46 1020.34 1020.22 1020.12 1020.05 1020.01 1020.00 1020.00 1020.01 1020.02 1020.02 1020.02 1020.02 1020.03
1018.04 1017.70 1017.37 1017.11 1016.96 1016.94 1017.06 1017.31 1017.66 1018.06 1018.45 1018.81 1019.10 1019.31 1019.44 1019.53 1019.59 1019.66 1019.78 1019.94 1020.16 1020.42 1020.68 1020.92 1021.10 1021.21 1021.22 1021.15 1021.01 1020.82 1020.62 1020.43 1020.28 1020.18 1020.12 1020.10 1020.11 1020.12 1020.13 1020.13 1020.11 1020.08 1020.06
1018.62 1018.25 1017.89 1017.59 1017.40 1017.36 1017.47 1017.72 1018.07 1018.48 1018.88 1019.25 1019.55 1019.78 1019.93 1020.04 1020.14 1020.26 1020.42 1020.64 1020.91 1021.20 1021.49 1021.73 1021.90 1021.96 1021.92 1021.77 1021.55 1021.28 1021.00 1020.75 1020.55 1020.41 1020.33 1020.31 1020.31 1020.33 1020.34 1020.33 1020.30 1020.24 1020.17
1019.18 1018.84 1018.49 1018.20 1018.02 1017.99 1018.11 1018.36 1018.72 1019.13 1019.54 1019.91 1020.22 1020.45 1020.62 1020.75 1020.88 1021.03 1021.23 1021.48 1021.78 1022.09 1022.38 1022.62 1022.76 1022.78 1022.68 1022.48 1022.19 1021.85 1021.51 1021.21 1020.97 1020.80 1020.70 1020.67 1020.68 1020.70 1020.71 1020.69 1020.64 1020.56 1020.45
1019.71 1019.45 1019.17 1018.94 1018.80 1018.80 1018.95 1019.22 1019.58 1019.99 1020.40 1020.77 1021.07 1021.31 1021.49 1021.63 1021.78 1021.95 1022.17 1022.43 1022.73 1023.04 1023.32 1023.53 1023.64 1023.63 1023.49 1023.24 1022.90 1022.53 1022.15 1021.82 1021.56 1021.38 1021.28 1021.25 1021.26 1021.28 1021.29 1021.27 1021.20 1021.09 1020.95
1020.24 1020.09 1019.91 1019.77 1019.71 1019.77 1019.95 1020.24 1020.61 1021.02 1021.42 1021.78 1022.09 1022.32 1022.51 1022.66 1022.81 1022.98 1023.20 1023.46 1023.74 1024.02 1024.27 1024.45 1024.52 1024.47 1024.30 1024.03 1023.68 1023.29 1022.91 1022.58 1022.33 1022.15 1022.07 1022.04 1022.06 1022.09 1022.11 1022.08 1022.00 1021.87 1021.69
1020.79 1020.77 1020.71 1020.67 1020.70 1020.82 1021.04 1021.35 1021.73 1022.14 1022.53 1022.89 1023.18 1023.42 1023.61 1023.76 1023.91 1024.08 1024.27 1024.50 1024.75 1024.99 1025.19 1025.32 1025.35 1025.28 1025.10 1024.82 1024.49 1024.12 1023.78 1023.48 1023.26 1023.11 1023.05 1023.04 1023.07 1023.11 1023.12 1023.09 1023.00 1022.86 1022.66
1021.38 1021.49 1021.55 1021.62 1021.73 1021.91 1022.17 1022.49 1022.87 1023.27 1023.65 1023.99 1024.29 1024.52 1024.71 1024.87 1025.02 1025.17 1025.34 1025.53 1025.73 1025.92 1026.06 1026.15 1026.14 1026.05 1025.87 1025.62 1025.32 1025.01 1024.72 1024.48 1024.31 1024.20 1024.17 1024.19 1024.23 1024.27 1024.28 1024.24 1024.15 1023.99 1023.78
1022.02 1022.24 1022.41 1022.57 1022.75 1022.97 1023.25 1023.58 1023.95 1024.33 1024.69 1025.03 1025.31 1025.55 1025.75 1025.92 1026.07 1026.21 1026.36 1026.51 1026.66 1026.79 1026.88 1026.92 1026.89 1026.79 1026.63 1026.42 1026.17 1025.93 1025.71 1025.54 1025.43 1025.38 1025.38 1025.41 1025.46 1025.49 1025.49 1025.45 1025.34 1025.18 1024.96
1022.71 1023.02 1023.27 1023.49 1023.72 1023.97 1024.25 1024.57 1024.91 1025.26 1025.60 1025.92 1026.21 1026.46 1026.67 1026.85 1027.01 1027.15 1027.29 1027.42 1027.53 1027.61 1027.66 1027.67 1027.62 1027.53 1027.39 1027.23 1027.05 1026.88 1026.74 1026.64 1026.58 1026.57 1026.59 1026.63 1026.67 1026.69 1026.66 1026.59 1026.47 1026.30 1026.08
Thickness
5727 5730 5731 5732 5732 5732 5732 5732 5733 5733 5734 5732 5731 5730 5729 5731 5732 5733 5733 5733 5732 5731 5730 5728 5726 5724 5722 5719 5718 5716 5712 5709 5708 5705 5701 5701 5703 5704 5704 5704 5705 5705 5705
5722 5725 5727 5728 5729 5728 5729 5729 5730 5730 5731 5730 5729 5729 5728 5728 5729 5729 5729 5729 5729 5728 5727 5725 5723 5721 5719 5717 5715 5713 5708 5706 5705 5701 5695 5690 5692 5696 5699 5700 5700 5701 5701
5720 5721 5723 5725 5726 5725 5726 5728 5727 5728 5728 5729 5727 5726 5725 5724 5723 5724 5724 5725 5725 5724 5723 5722 5720 5718 5717 5714 5712 5711 5707 5702 5702 5702 5696 5687 5683 5687 5691 5694 5695 5696 5696
5722 5721 5722 5723 5723 5724 5726 5726 5725 5725 5726 5726 5724 5721 5718 5716 5718 5719 5720 5721 5721 5721 5720 5719 5717 5716 5714 5712 5711 5709 5707 5703 5699 5699 5698 5696 5693 5686 5683 5686 5689 5691 5691
5722 5721 5722 5723 5723 5724 5724 5723 5723 5722 5723 5723 5721 5719 5717 5716 5715 5716 5716 5717 5717 5717 5717 5716 5715 5713 5712 5710 5709 5707 5705 5703 5699 5696 5695 5694 5692 5690 5684 5679 5682 5684 5685
5721 5721 5722 5721 5721 5721 5721 5721 5719 5719 5720 5720 5719 5718 5715 5713 5712 5711 5711 5712 5713 5713 5713 5713 5712 5710 5709 5707 5706 5704 5702 5700 5698 5696 5695 5692 5690 5687 5684 5679 5677 5677 5679
5719 5718 5717 5717 5717 5717 5718 5718 5717 5715 5716 5716 5716 5716 5715 5713 5711 5710 5709 5708 5708 5708 5709 5709 5709 5707 5706 5705 5703 5702 5699 5698 5696 5694 5692 5691 5690 5689 5686 5680 5675 5674 5674
5717 5717 5717 5717 5717 5717 5716 5715 5714 5713 5713 5714 5713 5713 5712 5711 5710 5709 5708 5707 5707 5706 5707 5706 5706 5705 5703 5702 5700 5698 5696 5695 5693 5692 5690 5689 5688 5688 5686 5681 5675 5670 5668
5715 5716 5716 5716 5716 5715 5716 5715 5713 5711 5711 5711 5711 5710 5710 5709 5708 5707 5707 5705 5705 5705 5704 5703 5702 5701 5700 5698 5697 5694 5692 5691 5690 5688 5687 5686 5685 5685 5683 5681 5678 5671 5664
5713 5714 5714 5714 5714 5714 5714 5714 5712 5711 5710 5709 5709 5708 5707 5707 5706 5705 5704 5703 5702 5701 5700 5699 5698 5697 5696 5695 5693 5690 5689 5687 5686 5685 5684 5683 5682 5681 5680 5678 5676 5673 5668
5712 5712 5711 5712 5712 5712 5711 5710 5709 5708 5707 5707 5707 5706 5705 5705 5704 5702 5701 5701 5700 5698 5697 5696 5695 5693 5692 5691 5689 5687 5685 5684 5682 5681 5680 5678 5678 5676 5675 5674 5672 5670 5667
5712 5711 5710 5709 5708 5707 5707 5707 5707 5706 5706 5705 5704 5703 5703 5702 5700 5699 5699 5698 5697 5696 5695 5693 5691 5690 5689 5687 5685 5683 5681 5680 5678 5677 5676 5674 5674 5672 5671 5670 5668 5666 5664
5708 5707 5706 5705 5705 5705 5706 5705 5705 5704 5704 5703 5701 5700 5699 5698 5697 5697 5696 5695 5694 5693 5691 5689 5687 5686 5685 5684 5682 5680 5678 5676 5674 5673 5672 5670 5669 5667 5666 5665 5663 5662 5661
5705 5703 5702 5702 5703 5704 5704 5703 5702 5703 5702 5700 5698 5696 5696 5695 5695 5694 5693 5692 5691 5689 5687 5685 5684 5683 5682 5680 5679 5676 5674 5672 5671 5670 5668 5667 5665 5664 5662 5661 5658 5657 5654
5701 5701 5700 5700 5700 5701 5701 5701 5700 5700 5699 5697 5695 5694 5693 5693 5692 5690 5689 5688 5687 5685 5684 5682 5680 5679 5678 5677 5675 5673 5671 5668 5666 5665 5664 5663 5663 5661 5660 5658 5654 5652 5649
5700 5701 5701 5700 5700 5700 5699 5699 5698 5697 5697 5694 5692 5691 5690 5689 5687 5686 5685 5683 5682 5680 5679 5677 5676 5675 5674 5674 5672 5670 5667 5664 5662 5660 5659 5658 5657 5657 5655 5654 5652 5650 5645
5701 5701 5700 5701 5701 5701 5700 5698 5697 5695 5693 5691 5689 5688 5687 5685 5684 5683 5681 5679 5677 5675 5674 5672 5671 5670 5669 5670 5668 5666 5663 5660 5657 5655 5654 5653 5652 5650 5649 5648 5646 5644 5643
5701 5701 5701 5701 5701 5701 5700 5698 5696 5693 5690 5688 5686 5685 5684 5682 5681 5679 5677 5675 5673 5671 5669 5667 5665 5665 5664 5664 5663 5661 5657 5654 5652 5650 5649 5647 5645 5645 5643 5641 5639 5637 5636
5703 5702 5702 5701 5699 5698 5697 5695 5691 5689 5686 5684 5683 5682 5681 5679 5677 5675 5673 5671 5669 5667 5664 5662 5660 5659 5658 5659 5657 5655 5651 5648 5645 5644 5643 5642 5640 5640 5638 5635 5631 5629 5628
5701 5701 5699 5698 5696 5695 5694 5690 5686 5684 5683 5682 5681 5680 5678 5676 5673 5672 5670 5668 5666 5663 5660 5657 5656 5654 5653 5653 5652 5649 5646 5641 5638 5637 5636 5636 5635 5634 5631 5628 5625 5622 5620
5699 5698 5696 5694 5693 5692 5690 5686 5683 5681 5682 5680 5678 5676 5675 5673 5670 5668 5666 5664 5661 5658 5655 5652 5650 5648 5648 5647 5646 5644 5640 5636 5633 5630 5629 5628 5628 5627 5624 5622 5619 5617 5615
5694 5693 5691 5689 5689 5689 5687 5682 5680 5680 5679 5677 5674 5672 5671 5669 5667 5664 5661 5659 5656 5652 5649 5646 5644 5642 5641 5641 5640 5638 5636 5633 5628 5625 5623 5622 5621 5619 5617 5615 5613 5610 5607
5690 5689 5687 5684 5683 5684 5683 5679 5677 5677 5674 5671 5668 5667 5665 5663 5661 5658 5655 5652 5650 5647 5644 5642 5639 5636 5635 5635 5634 5632 5630 5627 5623 5620 5618 5616 5614 5612 5609 5606 5604 5601 5597
5684 5684 5682 5679 5677 5678 5678 5676 5675 5673 5670 5666 5663 5661 5658 5656 5654 5653 5651 5648 5645 5643 5641 5637 5634 5631 5629 5628 5627 5625 5622 5620 5616 5613 5610 5608 5605 5602 5599 5596 5593 5590 5587
5678 5677 5676 5674 5673 5673 5673 5672 5670 5668 5664 5660 5658 5655 5652 5650 5648 5646 5645 5644 5643 5642 5638 5635 5632 5628 5625 5624 5623 5619 5616 5612 5609 5604 5600 5597 5594 5591 5588 5585 5582 5579 5577
5672 5671 5670 5669 5668 5668 5666 5666 5665 5663 5659 5655 5652 5649 5646 5643 5641 5639 5637 5637 5637 5636 5635 5632 5629 5626 5624 5621 5617 5613 5610 5606 5602 5597 5591 5587 5583 5580 5577 5574 5571 5569 5566